Location: DARK SKY Beskydy - Park tmavé oblohy, www.darkskybeskydy.cz
(49.4926°N, 18.5016°E)
Time: 05:02:22
(UTC+01:00)

Envisat - Pass Details

Date: 09 December 2022
Orbit: 763 x 765 km, 98.2° (Epoch: 05 February)

Event Time Altitude Azimuth Distance (km) Brightness Sun altitude
Rises 03:15:14 0° 21° (NNE) 3,244 6.6 -40.1°
Reaches altitude 10° 03:17:48 10° 32° (NNE) 2,313 5.9 -39.7°
Enters shadow 03:18:23 13° 36° (NE) 2,115 5.7 -39.6°
